Weather Roundup
Issued by NWS

Home | Current Version | Previous Version | Text Only | Print | Product List | Glossary On
Versions: 1 2 3 4 5 6 7 8 9 10 11 12 13 14 15 16 17 18 19 20 21 22 23 24 25 26 27 28 29 30 31 32 33 34 35 36 37 38 39 40 41 42 43 44 45 46 47 48 49 50
000
NZUS93 KARX 250759
HRRWXR

CURRENT HOURLY OBSERVATIONS ACROSS
MUCH OF THE UPPER MISSISSIPPI VALLEY
NATIONAL WEATHER SERVICE LA CROSSE WI
300 AM CDT MON MAY 25 2015


...SOUTHEAST MINNESOTA...


CITY           SKY/WX    TMP DP  RH WIND       PRES   REMARKS
ROCHESTER      LGT RAIN  59  58  96 SE7       29.72F FOG
ROCHESTER/MAYO CLOUDY    58  58 100 E7        29.72F
WINONA         LGT RAIN  59  59 100 SE5       29.72F
AUSTIN         DRIZZLE   63  61  94 S6        29.70F
ALBERT LEA     CLOUDY    63  63 100 S3        29.70F FOG
DODGE CENTER   CLOUDY    61  59  94 SE8       29.71F FOG
PRESTON        FOG       58  57  97 SE6       29.73F VSB 1
OWATONNA       CLOUDY    61  59  94 SE6       29.70F FOG
FARIBAULT      DRIZZLE   61  59  94 SE6       29.70F
$$

...ELSEWHERE IN MINNESOTA...


CITY           SKY/WX    TMP DP  RH WIND       PRES   REMARKS
MINNEAPOLIS    LGT RAIN  58  57  97 E13       29.70F FOG
INTNL FALLS    CLOUDY    51  49  92 CALM      29.83F
DULUTH         LGT RAIN  58  56  93 NE12      29.82F
RED WING       CLOUDY    57  57 100 E6        29.71F
REDWOOD FALLS  CLOUDY    58  57  97 N3        29.69F FOG
MANKATO        CLOUDY    63  61  94 S6        29.69S
WORTHINGTON    CLOUDY    57  55  94 W5        29.72S VSB 1/2
FAIRMONT       CLOUDY    61  55  82 SW8       29.70F
$$

...SOUTHWEST WISCONSIN...


CITY           SKY/WX    TMP DP  RH WIND       PRES   REMARKS
LA CROSSE      CLOUDY    62  59  90 CALM      29.72F FOG
PRAIRIE DU CHI CLOUDY    67  64  89 SE8       29.74F
BOSCOBEL       CLOUDY    62  60  93 CALM      29.75F FOG
LONE ROCK      NOT AVBL
PLATTEVILLE    CLOUDY    66  65  96 S9        29.77F
FORT MC COY    DRIZZLE   60  59  96 E5        29.75F
CAMP DOUGLAS   CLOUDY    59  59 100 SE6       29.76S FOG
VIROQUA        CLOUDY    62  62 100 SE9       29.75F
WIS DELLS      RAIN      61  60  94 S6        29.78F
$$

...ELSEWHERE IN WISCONSIN...


CITY           SKY/WX    TMP DP  RH WIND       PRES   REMARKS
MILWAUKEE      CLOUDY    56  55  97 CALM      29.85F FOG
MADISON        CLOUDY    65  63  93 S9        29.78F FOG
GREEN BAY      CLOUDY    58  57  97 E5        29.83F FOG
EAU CLAIRE     LGT RAIN  57  55  93 E5        29.74F
BLACK RVR FLS  DRIZZLE   59  59 100 CALM      29.75F
MEDFORD        LGT RAIN  54  54  99 E9        29.78F
WAUSAU         LGT RAIN  56  55  97 E10       29.79F
WIS RAPIDS     CLOUDY    59  57  93 SE6       29.79F FOG
MARSHFIELD     LGT RAIN  57  55  93 SE8       29.77F VSB 1/2
RICE LAKE      DRIZZLE   56  54  92 E8        29.77F
$$

...NORTHEAST IOWA...


CITY           SKY/WX    TMP DP  RH WIND       PRES   REMARKS
DECORAH        CLOUDY    64  64 100 S7        29.73S
MASON CITY     CLOUDY    63  62  97 SW9       29.74R
CHARLES CITY   CLOUDY    63  63 100 SW6       29.74S FOG
OELWEIN        CLOUDY    64  64 100 S14       29.76S
$$

...ELSEWHERE IN IOWA...


CITY           SKY/WX    TMP DP  RH WIND       PRES   REMARKS
DES MOINES     CLOUDY    64  61  90 SW10      29.76S
IOWA CITY      LGT RAIN  65  63  93 SW7       29.77S
FORT DODGE     CLOUDY    61  57  88 SW5       29.75S
$$

...NORTHERN ILLINOIS...


CITY           SKY/WX    TMP DP  RH WIND       PRES   REMARKS
CHICAGO-OHARE  CLOUDY    73  62  68 S21       29.84F
CHICAGO-MIDWAY CLOUDY    75  63  66 S18G25    29.85F
MOLINE         NOT AVBL
ROCKFORD       LGT RAIN  67  65  93 SE6       29.83F
PEORIA         CLOUDY    69  63  81 S20G28    29.82F
$$

NOTE: "FAIR" INDICATES FEW OR NO CLOUDS BELOW 12,000 FEET WITH NO
SIGNIFICANT WEATHER AND/OR OBSTRUCTIONS TO VISIBILITY. WIND
SPEEDS ARE IN MILES-PER-HOUR.



USA.gov is the U.S. government's official web portal to all federal, state and local government web resources and services.